Starlink 32379

operational
NORAD ID: 61851 Int'l Des: 2024-202 Owner: SPXS Country: US Constellation: starlink
LEOCIRCULAR

关于 Starlink 32379

正在加载描述...

实时位置

正在加载3D地球...

即将过境

高度历史

Altitude vs Time

uPlot chart will show altitude changes over time

两行轨道根数

1 61851U 24202G 25259.00835235 .00002271 00000-0 91936-4 0 9994
2 61851 43.0010 133.1416 0001449 268.0305 92.0380 15.27606798 48748
Epoch: Sep 16, 2025 • Age: 10 hours

当前状态

高度 489.0 km
速度 7.62 km/s
星下点 -26.47°S, 171.51°W
发射日期 Nov 7, 2024
运行时间 0.8 years
类型 internet

技术详情

分类 Payload
质量 730.00 kg
干质量 700.00 kg
总质量 730.00 kg
长度 0.30 m
直径 4.10 m
跨度 29.00 m
形状 Box + pan
制造商 SPXS
平台类型 Starlink V2M
阶段状态 In Orbit
所有者/国家 SPXS/US

大型星座

Loading constellations...